Location: Al Mulaqqa?ah
(24.1833°N, 32.8833°E)
Time: 20:51:36
(UTC+00:00)

Cosmos 1766 - Pass Details

Date: 26 September 2021
Orbit: 519 x 543 km, 82.5° (Epoch: 25 October)

Event Time Altitude Azimuth Distance (km) Brightness Sun altitude
Rises 16:44:27 0° 170° (S) 2,675 6.7 -15.4°
Reaches altitude 10° 16:46:42 10° 162° (SSE) 1,784 5.7 -15.9°
Maximum altitude 16:50:22 39° 93° (E) 805 3.6 -16.7°
Drops below altitude 10° 16:54:01 10° 23° (NNE) 1,778 5.7 -17.6°
Sets 16:56:15 0° 16° (NNE) 2,666 6.7 -18.1°
